Location: Barnston
(51.8500°N, 0.4000°E)
Time: 13:55:37
(UTC+00:00)

Cosmos 1680 Rocket - Pass Details

Date: 26 September 2023
Orbit: 759 x 779 km, 74.1° (Epoch: 10 December)

Event Time Altitude Azimuth Distance (km) Brightness Sun altitude
Rises 02:18:35 0° 336° (NNW) 3,274 7.0 -30.5°
Reaches altitude 10° 02:21:03 10° 341° (NNW) 2,343 6.3 -30.2°
Maximum altitude 02:26:16 55° 59° (ENE) 938 4.1 -29.6°
Enters shadow 02:29:08 26° 127° (SE) 1,505 5.0 -29.3°
